W1BST Weather Reports


time (UTC)temp
C
wind
direction
speed
KPH
gust
KPH
rain 1hr
cm
rain 24hr
cm
rain mn
cm
humidity
%
barometer
mb
20260507224015 13 298 8.0 19.3 661.09 0.00 0.00
20260507222014 14 300 4.8 25.7 661.09 0.00 0.00
20260507221014 13 262 8.0 22.5 661.09 0.00 0.00
20260507220014 14 263 8.0 27.4 661.09 0.00 0.00
20260507215515 14 255 8.0 25.7 661.09 0.00 0.00
20260507214014 15 302 6.4 17.7 661.09 0.00 0.00
20260507211515 15 280 9.7 25.7 661.09 0.00 0.00
20260507211015 15 326 11.3 29.0 661.09 0.00 0.00
20260507210014 13 329 9.7 20.9 661.09 0.00 0.00
20260507204015 15 290 12.9 35.4 661.09 0.00 0.00
20260507203015 15 284 12.9 27.4 661.09 0.00 0.00
20260507202015 17 298 12.9 27.4 661.09 0.00 0.00
20260507200015 17 266 11.3 32.2 661.09 0.00 0.00
20260507195015 16 301 12.9 35.4 661.09 0.00 0.00
20260507194015 16 309 12.9 37.0 661.09 0.00 0.00
20260507193015 16 323 14.5 29.0 661.09 0.00 0.00
20260507190015 15 302 11.3 25.7 661.09 0.00 0.00
20260507183016 17 284 11.3 24.1 661.09 0.00 0.00
20260507181015 17 281 12.9 25.7 661.09 0.00 0.00
20260507180015 18 294 8.0 22.5 661.09 0.00 0.00
20260507174015 16 281 14.5 40.2 661.09 0.00 0.00
20260507173015 17 281 11.3 32.2 661.09 0.00 0.00
20260507172015 16 305 9.7 25.7 661.09 0.00 0.00
20260507171015 17 290 4.8 17.7 661.09 0.00 0.00
20260507164015 16 336 9.7 32.2 661.09 0.00 0.00
20260507161015 13 322 9.7 22.5 661.09 0.00 0.00
20260507151515 14 311 8.0 20.9 661.09 0.00 0.00
20260507150015 14 293 11.3 22.5 661.09 0.00 0.00
20260507144015 16 271 12.9 29.0 661.09 0.00 0.00
20260507143015 17 332 16.1 33.8 661.09 0.00 0.00
20260507135015 18 260 8.0 16.1 661.09 0.00 0.00
20260507134515 17 281 8.0 19.3 661.09 0.00 0.00
20260507133515 15 291 9.7 25.7 661.09 0.00 0.00
20260507132015 15 307 8.0 14.5 661.09 0.00 0.00
20260507125515 11 291 6.4 14.5 661.09 0.00 0.00
20260507124015 10 307 6.4 14.5 661.09 0.00 0.00
20260507122015 10 291 4.8 11.3 661.09 0.00 0.00
20260507120015 8 308 3.2 8.0 661.09 0.00 0.00
20260507114015 8 253 3.2 4.8 661.09 0.00 0.00
20260507113515 7 278 4.8 11.3 661.09 0.00 0.00
20260507113015 7 283 4.8 9.7 661.09 0.00 0.00
20260507112015 7 280 6.4 12.9 661.09 0.00 0.00
20260507110015 7 284 0.0 3.2 661.09 0.00 0.00
20260507105016 7 0 0.0 0.0 661.09 0.00 0.00
20260507104016 6 0 0.0 0.0 661.09 0.00 0.00
20260507100015 6 312 1.6 6.4 661.09 0.00 0.00
20260507094015 6 0 0.0 0.0 661.09 0.00 0.00
20260507093515 6 302 1.6 4.8 661.09 0.00 0.00
20260507093015 7 231 1.6 4.8 661.09 0.00 0.00
20260507092515 6 311 3.2 8.0 661.09 0.00 0.00
20260507092015 6 298 1.6 4.8 661.09 0.00 0.00
20260507091515 6 294 1.6 4.8 661.09 0.00 0.00
20260507090515 7 309 1.6 9.7 661.09 0.00 0.00
20260507090015 7 326 4.8 9.7 661.09 0.00 0.00
20260507085016 7 281 3.2 9.7 661.09 0.00 0.00
20260507084015 7 297 1.6 8.0 661.09 0.00 0.00
20260507083015 6 333 4.8 11.3 661.09 0.00 0.00
20260507082015 7 300 4.8 8.0 661.09 0.00 0.00
20260507081015 7 264 3.2 6.4 661.09 0.00 0.00
20260507075515 6 328 4.8 9.7 661.09 0.00 0.00
20260507075015 7 326 4.8 11.3 661.09 0.00 0.00
20260507074016 7 338 3.2 6.4 661.09 0.00 0.00
20260507073015 7 297 4.8 9.7 661.09 0.00 0.00
20260507072515 7 300 4.8 9.7 661.09 0.00 0.00
20260507072015 8 295 4.8 9.7 661.09 0.00 0.00
20260507071015 7 297 6.4 11.3 661.09 0.00 0.00
20260507070015 7 302 8.0 17.7 661.09 0.00 0.00
20260507065015 7 274 8.0 16.1 661.09 0.00 0.00
20260507064015 8 290 8.0 17.7 661.09 0.00 0.00
20260507063015 8 283 11.3 20.9 661.09 0.00 0.00
20260507061015 8 280 9.7 16.1 661.09 0.00 0.00
20260507060015 8 294 9.7 20.9 661.09 0.00 0.00
20260507055515 8 250 8.0 19.3 661.09 0.00 0.00
20260507055015 8 269 6.4 17.7 661.09 0.00 0.00
20260507054516 8 298 4.8 16.1 661.09 0.00 0.00
20260507054015 8 267 4.8 14.5 661.09 0.00 0.00
20260507052015 8 342 3.2 8.0 661.09 0.00 0.00
20260507051015 9 297 0.0 14.5 661.09 0.00 0.00
20260507050015 8 300 6.4 14.5 661.09 0.00 0.00
20260507045015 9 287 4.8 16.1 661.09 0.00 0.00
20260507044515 9 300 0.0 6.4 661.09 0.00 0.00
20260507044015 9 280 3.2 9.7 661.09 0.00 0.00
20260507043515 9 297 3.2 8.0 661.09 0.00 0.00
20260507042015 9 325 8.0 16.1 661.09 0.00 0.00
20260507041015 9 308 8.0 17.7 661.09 0.00 0.00
20260507040015 9 278 6.4 14.5 661.09 0.00 0.00
20260507035515 9 280 8.0 14.5 661.09 0.00 0.00
20260507034515 10 323 8.0 16.1 661.09 0.00 0.00
20260507034015 10 271 6.4 16.1 661.09 0.00 0.00
20260507033015 10 274 8.0 17.7 661.09 0.00 0.86
20260507032515 10 312 6.4 19.3 661.09 0.00 0.86
20260507032015 10 266 8.0 16.1 661.06 0.00 0.84
20260507031515 10 281 9.7 25.7 661.06 0.00 0.84
20260507031015 10 277 11.3 24.1 661.06 0.00 0.84
20260507030015 10 311 8.0 14.5 661.03 0.00 0.81
20260507025516 10 226 9.7 19.3 661.03 0.00 0.81
20260507024515 11 269 11.3 22.5 661.03 0.00 0.81
20260507024015 11 287 11.3 22.5 661.03 0.00 0.81
20260507021515 12 288 9.7 22.5 661.03 0.00 0.81
20260507021015 12 287 8.0 22.5 661.03 0.00 0.81
20260507020015 12 278 9.7 14.5 661.03 0.00 0.81
20260507015015 13 273 11.3 24.1 661.03 0.00 0.81
20260507014015 13 274 8.0 12.9 661.03 0.00 0.81
20260507013515 13 315 9.7 19.3 661.01 0.00 0.79
20260507013015 13 278 8.0 17.7 661.01 0.00 0.79
20260507012015 13 276 9.7 16.1 661.01 0.00 0.79
20260507010515 13 281 8.0 20.9 661.01 0.00 0.79
20260507010015 14 260 9.7 22.5 660.98 0.00 0.76
20260507005515 14 309 8.0 19.3 660.96 0.00 0.74
20260507005015 14 266 8.0 14.5 660.96 0.00 0.74
20260507004015 14 277 6.4 16.1 660.93 0.00 0.71
20260507003515 14 250 3.2 17.7 660.93 0.00 0.71
20260507003015 14 249 8.0 17.7 660.93 0.00 0.71
20260507001516 14 274 6.4 12.9 660.93 0.00 0.71
20260507001015 14 277 6.4 11.3 660.91 0.00 0.69
20260507000015 14 252 6.4 16.1 660.91 0.00 0.69
20260506235515 14 225 6.4 14.5 660.91 0.00 0.69
20260506235015 14 127 9.7 22.5 660.91 0.00 0.69
20260506234016 14 136 6.4 14.5 660.88 0.00 0.66
20260506232016 14 117 8.0 25.7 660.88 0.00 0.66
20260506231515 15 224 8.0 17.7 660.88 0.00 0.66
20260506231015 15 225 9.7 20.9 660.88 0.00 0.66
20260506225015 15 242 8.0 17.7 660.88 0.00 0.66